This is the latest recevied weather packets stored in our database for station/object SP1BMW-13. If no packets are shown the sender has not sent any weather packets the latest 1 day(s).
| Time | Temp. | Humidity | Pressure | Rain* | Wind** | Luminosity | Snow |
|---|---|---|---|---|---|---|---|
| 1778099573 | 7.22° C | 86% | 1008.4 hPa | 0 mm | 1.34 m/s, 34° | 0 W/m² | - |
| 1778099393 | 7.22° C | 87% | 1008.2 hPa | 0 mm | 2.24 m/s, 323° | 0 W/m² | - |
| 1778099333 | 7.22° C | 86% | 1008.5 hPa | 0 mm | 0.89 m/s, 63° | 0 W/m² | - |
| 1778099273 | 7.22° C | 86% | 1008.4 hPa | 0 mm | 1.34 m/s, 347° | 0 W/m² | - |
| 1778099033 | 7.22° C | 86% | 1008.5 hPa | 0 mm | 1.79 m/s, 338° | 0 W/m² | - |
| 1778098853 | 7.22° C | 86% | 1008.4 hPa | 0 mm | 2.68 m/s, 19° | 0 W/m² | - |
| 1778098552 | 7.22° C | 86% | 1008.4 hPa | 0 mm | 2.24 m/s, 49° | 0 W/m² | - |
| 1778098433 | 7.22° C | 86% | 1008.5 hPa | 0 mm | 0.89 m/s, 21° | 0 W/m² | - |
| 1778098373 | 7.22° C | 86% | 1008.4 hPa | 0 mm | 4.02 m/s, 28° | 0 W/m² | - |
| 1778098133 | 7.22° C | 87% | 1008.4 hPa | 0 mm | 0.89 m/s, 330° | 0 W/m² | - |
| 1778098012 | 7.22° C | 87% | 1008.3 hPa | 0 mm | 0.89 m/s, 24° | 0 W/m² | - |
| 1778097653 | 7.22° C | 87% | 1008.1 hPa | 0 mm | 0 m/s | 0 W/m² | - |
| 1778097293 | 7.22° C | 87% | 1008.2 hPa | 0 mm | 1.34 m/s, 309° | 0 W/m² | - |
| 1778096813 | 7.78° C | 87% | 1008.1 hPa | 0 mm | 0 m/s | 0 W/m² | - |
| 1778096693 | 7.78° C | 87% | 1007.9 hPa | 0 mm | 0.45 m/s, 345° | 0 W/m² | - |
| 1778096333 | 7.78° C | 87% | 1008.3 hPa | 0 mm | 0.45 m/s, 351° | 0 W/m² | - |
| 1778096273 | 7.78° C | 87% | 1008.2 hPa | 0 mm | 0.45 m/s, 36° | 0 W/m² | - |
| 1778094773 | 7.78° C | 86% | 1008.5 hPa | 0 mm | 1.79 m/s, 43° | 0 W/m² | - |
| 1778094653 | 7.78° C | 86% | 1008.3 hPa | 0 mm | 0.45 m/s, 316° | 0 W/m² | - |
| 1778094413 | 7.78° C | 87% | 1008.3 hPa | 0 mm | 0.89 m/s, 39° | 0 W/m² | - |
| 1778094353 | 7.78° C | 87% | 1008.3 hPa | 0 mm | 0.89 m/s, 324° | 0 W/m² | - |
| 1778094293 | 7.78° C | 87% | 1008.1 hPa | 0 mm | 0.89 m/s, 72° | 0 W/m² | - |
| 1778094232 | 7.78° C | 87% | 1008.2 hPa | 0 mm | 1.79 m/s, 46° | 0 W/m² | - |
| 1778094113 | 7.78° C | 88% | 1008.2 hPa | 0 mm | 0 m/s | 0 W/m² | - |
| 1778094053 | 7.78° C | 88% | 1008 hPa | 0 mm | 0.45 m/s, 350° | 0 W/m² | - |
* Rain latest hour (hover to see other rain measurements)
** Current wind speed in m/s (hover to see current wind gust speed)